Location: Foxton
(40.4667°S, 175.3000°E)
Time: 22:56:15
(UTC+00:00)

Daily predictions for brighter satellites

Satellite Brightness Start Highest point End
(mag) Time Altitude Azimuth Time Altitude Azimuth Time Altitude Azimuth
Meteor 2-15 4.4 12:14:42 63° NW 12:15:37 74° W 12:21:50 10° S
Meteor 2-14 Rocket 4.4 12:13:31 10° SSW 12:19:41 71° W 12:20:24 64° NW
RESURS DK-1 4.1 12:16:48 10° S 12:20:07 24° ESE 12:20:30 24° ESE
Cosmos 1000 Rocket 4.4 12:17:32 10° S 12:23:58 86° E 12:25:01 65° NNE
ARIANE 5 R/B 2.9 12:20:24 10° SSE 12:24:19 65° SE 12:24:19 65° SE
Meteor 1-16 Rocket 3.9 12:27:01 82° NE 12:27:10 83° E 12:32:36 10° S
USA 215 4.2 12:21:46 10° ESE 12:27:11 31° ENE 12:27:11 31° ENE
Meteor 2-5 Rocket 3.8 12:23:56 10° SSW 12:29:53 66° W 12:30:23 63° NW
Cosmos 2292 Rocket 4.4 12:30:10 10° S 12:34:33 51° E 12:34:52 50° E
Spot 4 3.8 12:32:25 10° SSE 12:37:12 84° SE 12:37:12 84° SE
Cosmos 1934 Rocket 3.8 12:38:03 66° N 12:38:57 83° E 12:45:14 10° S
Cosmos 1703 Rocket 4.2 12:36:25 10° SSW 12:40:01 49° SW 12:40:01 49° SW
MSX 4.3 12:40:34 43° ENE 12:42:06 56° ESE 12:47:49 10° S
Cosmos 1727 Rocket 4.4 12:40:20 10° SSW 12:46:18 48° W 12:47:04 45° WNW
Meteor 2-8 Rocket 4.3 12:46:37 65° NNW 12:47:36 82° W 12:53:52 10° S
SL-08 R/B 4.4 12:41:18 10° S 12:47:47 85° W 12:48:56 63° N
Cosmos 1953 4.1 12:49:16 23° SW 12:49:16 23° SW 12:51:33 10° SSW
Cosmos 44 Rocket 3.9 12:51:50 45° WSW 12:52:26 48° SW 12:57:09 10° SSE
CZ-2C R/B 4.1 12:53:53 10° SE 12:58:31 27° E 12:59:48 24° ENE
SeaSat 1 3.7 13:00:26 22° ENE 13:02:58 38° SE 13:07:31 10° S
Resurs 1-4 Rocket 3.7 13:00:55 17° ENE 13:03:54 29° ESE 13:08:25 10° S
Aureole 3 4.4 12:58:12 10° S 13:04:29 66° E 13:05:42 52° NE
Cosmos 2123 Rocket 4.0 12:59:32 10° SSW 13:05:46 65° W 13:06:47 56° NW
Cosmos 1833 Rocket 2.5 13:02:12 10° SSW 13:07:53 82° WNW 13:08:34 69° N
Cosmos 1943 Rocket 2.2 13:09:51 59° NE 13:10:30 64° ENE 13:16:08 10° SSE
IDEFIX/ARIANE 42P 2.4 13:10:33 72° N 13:11:06 85° WNW 13:16:27 10° SSW
ACS3 Solar Sail 4.0 13:07:08 10° ENE 13:11:18 19° ESE 13:15:26 10° SSE
Cosmos 1140 Rocket 3.3 13:11:01 77° NNW 13:11:25 89° ENE 13:16:43 10° SSE
Cosmos 921 Rocket 4.2 13:19:26 32° WSW 13:19:26 32° WSW 13:23:03 10° S
Cosmos 2082 Rocket 4.0 13:14:21 10° S 13:19:18 28° SE 13:24:11 10° ENE
Cosmos 2278 Rocket 2.2 13:18:41 60° NNE 13:19:34 71° ENE 13:25:17 10° SSE
ALOS 2 3.5 13:16:54 10° S 13:21:00 37° WSW 13:21:03 37° WSW
FENGYUN 3A 3.6 13:20:46 55° NNE 13:21:59 81° ESE 13:27:28 10° SSW
Cosmos 839 Rocket 3.9 13:18:24 10° SW 13:24:30 67° WNW 13:25:53 52° N
ISS -1.2 13:26:27 10° SSW 13:29:18 24° SSE 13:32:09 10° E
NPP 3.6 13:32:36 59° NW 13:33:20 67° WNW 13:38:48 10° SSW
DELTA 2 R/B (1) 3.4 13:35:09 29° W 13:38:02 74° N 13:43:36 10° ENE
Cosmos 540 Rocket 4.4 13:35:56 10° S 13:40:54 44° ESE 13:44:22 18° NE
Timation 1 Rocket 4.5 13:35:45 10° SSW 13:41:49 73° ESE 13:45:21 26° NE
Cosmos 1733 Rocket 3.4 13:42:47 51° W 13:42:51 52° W 13:47:14 10° S
Cosmos 407 Rocket 3.5 13:42:03 59° N 13:43:07 86° ENE 13:48:33 10° SSE
H-2A R/B 4.1 13:38:52 10° ENE 13:43:15 26° ESE 13:47:42 10° S
SJ 16-02 2.5 13:47:43 30° ENE 13:48:29 32° E 13:52:22 10° SE
RESURS DK-1 4.1 13:54:05 10° SW 13:55:45 20° WSW 13:55:45 20° WSW
NOAA 11 4.1 13:57:42 40° NNE 13:59:49 87° WNW 14:05:24 10° SSW
Cosmos 1908 Rocket 3.5 14:03:34 56° NNE 14:04:25 77° E 14:08:51 10° S
CZ-2D R/B 2.1 14:04:06 36° NNE 14:06:26 87° WNW 14:12:00 10° SSW
Cosmos 1441 Rocket 3.0 14:03:08 10° S 14:06:12 68° SSW 14:06:12 68° SSW
USA 215 3.4 14:04:12 10° SE 14:10:48 73° SW 14:14:31 28° WNW
Cosmos 1340 Rocket 4.5 14:12:52 20° WSW 14:12:52 20° WSW 14:15:45 10° SSW
Cosmos 1674 Rocket 3.8 14:15:27 10° SSW 14:19:49 50° W 14:20:30 46° NW
Cosmos 371 Rocket 3.5 14:19:50 36° N 14:21:37 62° ENE 14:26:23 10° SSE
Envisat 2.9 14:19:53 35° N 14:22:04 75° WNW 14:27:14 10° SSW
USA 305 3.3 14:21:57 29° SW 14:22:07 30° SSW 14:25:13 10° SSE
Cosmos 1802 Rocket 4.1 14:19:51 27° N 14:23:23 76° E 14:29:44 10° S
H-2A R/B 1.9 14:23:43 35° NNE 14:25:22 80° ESE 14:29:25 10° S
Cosmos 1025 Rocket 3.2 14:23:32 10° SSW 14:27:53 56° W 14:28:54 44° NW
Cosmos 1864 Rocket 4.5 14:25:32 27° N 14:29:08 84° E 14:35:23 10° S
ALOS 2.2 14:29:17 38° NNW 14:30:54 65° WNW 14:35:31 10° SSW
H-2A R/B 4.4 14:30:40 10° SE 14:33:47 22° E 14:36:51 10° NNE
Cosmos 2251 Rocket 3.6 14:32:05 35° NW 14:34:14 64° WSW 14:39:30 10° SSE
ADEOS II 2.1 14:32:32 29° N 14:35:14 67° WNW 14:40:31 10° SSW
CZ-2C R/B 3.4 14:33:39 10° S 14:38:47 41° WSW 14:41:15 27° WNW
SeaSat 1 3.3 14:40:02 28° WNW 14:40:21 28° WNW 14:44:36 10° SW
Cosmos 1656 Rocket 3.6 14:38:25 30° NNW 14:41:13 86° ENE 14:46:42 10° SSE
Cosmos 2173 Rocket 4.3 14:39:18 28° NW 14:42:32 54° W 14:48:52 10° S
USA 267 3.9 14:36:22 10° ENE 14:42:47 59° SE 14:49:15 10° SW
Resurs 1-4 Rocket 2.8 14:41:57 30° NW 14:43:30 36° W 14:48:23 10° SSW
ADEOS Rocket 3.1 14:38:00 14° N 14:44:06 78° WNW 14:50:25 10° SSW
Cosmos 468 Rocket 3.9 14:39:29 10° SSW 14:44:51 80° WNW 14:49:38 13° NNE
Cosmos 2100 Rocket 4.4 14:42:43 27° NW 14:45:58 49° WSW 14:52:12 10° S
CZ-2C R/B 4.1 14:46:09 10° NE 14:50:14 31° ESE 14:54:18 10° S
Tsikada Rocket 4.4 14:43:59 10° S 14:50:20 64° E 14:56:39 10° NNE
Cosmos 1763 Rocket 4.2 14:48:04 10° SW 14:52:49 34° W 14:54:42 26° NW
ACS3 Solar Sail 1.8 14:48:23 16° N 14:53:30 71° W 14:59:39 10° SSW
Cosmos 1943 Rocket 4.0 14:51:20 13° W 14:54:43 20° SW 14:58:53 10° S
Cosmos 2369 Rocket 2.7 14:51:11 18° N 14:55:16 55° ENE 15:00:49 10° SSE
COSMOS 2406 3.3 14:50:37 10° SSW 14:56:26 86° ESE 15:02:10 10° NNE
ARGOS 4.0 14:51:52 10° NNE 14:57:04 52° ESE 15:02:18 10° S
Cosmos 1869 3.1 14:55:41 26° N 14:57:37 77° E 15:01:21 10° S
Cosmos 1300 Rocket 4.0 14:55:46 29° NW 14:57:37 48° W 15:01:58 10° S
Cosmos 1725 Rocket 4.1 14:55:35 23° NNW 14:59:34 63° W 15:05:48 10° S
Cosmos 304 Rocket 4.1 14:57:58 26° NW 15:00:21 51° WSW 15:05:03 10° S
Cosmos 2082 Rocket 2.6 14:58:06 10° SW 15:03:30 43° WNW 15:07:45 16° N
Cosmos 2278 Rocket 4.1 15:00:30 11° W 15:04:12 19° SW 15:08:12 10° S
ISS -3.8 15:02:55 10° WSW 15:06:19 58° NW 15:09:39 10° NE
Cosmos 1400 Rocket 3.4 15:09:55 12° N 15:13:14 50° E 15:16:59 10° SSE
Cosmos 220 Rocket 3.8 15:12:07 10° SSW 15:16:14 85° ESE 15:20:17 10° NNE
Cosmos 2058 4.0 15:13:00 10° S 15:16:48 42° ESE 15:20:34 10° NNE
USA 276 3.5 15:15:12 10° SW 15:18:01 39° SSE 15:20:57 10° E
Lacrosse 5 rocket 0.8 15:18:34 24° NNW 15:20:25 72° NE 15:23:48 10° SE
AQUA 4.1 15:16:56 14° N 15:20:42 47° W 15:25:17 10° SSW
CENTAUR R/B 3.4 15:14:08 12° NNW 15:22:08 62° ENE 15:29:19 10° SE
H-2A R/B 2.6 15:18:03 15° NNW 15:22:15 42° W 15:27:28 10° SSW
SWARM A 4.2 15:20:00 10° S 15:23:23 83° W 15:26:23 12° N
DELTA 2 R/B (1) 4.1 15:19:02 10° W 15:24:03 35° NNW 15:29:02 10° NE
SJ 16-02 2.9 15:24:15 14° WNW 15:26:39 22° WSW 15:30:02 10° SSW
Cosmos 1850 Rocket 4.1 15:27:17 12° NNW 15:32:19 83° ENE 15:37:44 10° SSE
Cosmos 2263 4.2 15:28:49 12° NNW 15:34:02 85° ENE 15:39:43 10° SSE
Cosmos 2151 Rocket 4.0 15:30:45 10° N 15:35:05 64° E 15:39:32 10° SSE
Cosmos 2297 3.8 15:32:56 14° NNW 15:37:55 70° WSW 15:43:41 10° SSE
Cosmos 1812 3.4 15:43:42 15° WNW 15:45:21 24° WSW 15:47:48 10° SSW
ATLAS 2AS CENTAUR R/B 2.9 15:38:56 10° SW 15:46:24 83° WNW 15:53:46 10° NNE
Iridium 4 Rocket 4.4 15:41:45 11° NNW 15:46:50 39° W 15:52:21 10° SSW
CZ-2D R/B 4.1 15:46:28 10° W 15:47:09 10° W 15:47:49 10° W
Cosmos 1975 Rocket 4.0 15:43:23 10° SSW 15:47:10 29° W 15:50:55 10° NNW
MOS 1-B Rocket 4.4 15:46:21 10° NNW 15:51:55 40° W 15:57:15 10° SSW
SL-08 RB Rocket 3.6 15:48:32 10° N 15:53:00 76° WNW 15:57:34 10° SSW
ASTEX 1 3.8 15:48:30 10° S 15:53:14 46° WSW 15:57:54 10° NNW
Cosmos 1862 3.0 15:51:06 10° S 15:54:47 83° W 15:58:24 10° N
BREEZE-M DEB (TANK) 3.9 15:44:08 10° WSW 15:55:24 58° NW 15:58:59 10° NNE
Spot 2 4.0 15:52:21 10° S 15:56:24 61° WSW 16:00:21 10° NNW
Cosmos 841 Rocket 4.1 15:51:50 10° SW 15:56:34 36° WNW 16:01:15 10° NNW
Lacrosse 4 Rocket 1.3 15:58:33 10° NNW 16:02:33 81° WSW 16:06:41 10° SSE
DMSP B5D2-2 4.3 16:02:23 10° SSE 16:07:44 78° ENE 16:12:59 10° N
FALCON 9 R/B 3.5 15:57:44 10° NW 16:07:51 34° N 16:11:51 10° ENE
H-2A R/B 3.5 16:04:27 10° S 16:07:51 28° WSW 16:11:16 10° NW
Cosmos 1939 Rocket 2.6 16:05:59 10° NNE 16:09:39 86° WNW 16:13:24 10° SSW
Meteor 2-1 Rocket 4.5 16:05:41 10° N 16:11:11 76° E 16:16:49 10° SSE
